RH
77 68 64 76 78 85 86 83 79 72 80 68 48 61 67 83 74 72 73 57 59 46 45 35 31 34 29 27 29 31 36 26 31 32 32 36 52 63 67 68 69 69 70 67 69 74 78 81 81
69 64 63 60 80 82 81 78 79 66 67 62 59 69 77 93 92 94 75 61 49 35 35 30 30 26 27 26 28 30 26 29 34 34 36 46 62 68 70 72 71 70 73 80 83 84 86 88 78
59 58 58 83 79 79 75 72 64 63 60 57 63 69 84 92 99 78 68 59 46 33 30 27 27 27 27 25 26 25 27 32 35 34 42 58 66 70 72 71 70 74 78 81 86 86 86 87 79
62 62 69 75 64 55 62 65 58 62 62 58 63 86 88 97 86 74 60 61 43 32 31 27 27 28 30 28 28 29 31 37 37 41 55 66 70 71 71 72 76 77 82 84 82 86 87 80 76
64 66 85 61 55 60 58 60 60 64 59 61 63 92 93 97 81 67 56 55 40 30 28 26 27 30 32 32 33 33 37 41 41 55 67 69 71 70 76 77 77 76 82 86 78 82 72 71 77
63 69 80 82 71 64 60 58 56 59 62 71 79 84 99 89 71 61 57 56 42 29 29 30 35 36 37 40 34 37 43 46 59 67 71 69 72 79 77 75 77 75 80 83 78 77 71 74 79
64 74 73 71 72 65 62 58 58 61 64 70 70 91 100 97 68 58 59 51 45 33 32 35 40 43 45 38 35 44 49 65 72 72 70 72 73 80 79 77 71 73 77 79 77 70 68 74 76
52 67 63 63 68 63 58 55 57 57 63 63 59 94 96 93 72 65 66 56 50 41 38 39 42 49 45 35 39 50 61 78 77 73 73 73 74 77 76 71 70 74 79 78 63 68 66 65 70
57 65 60 55 56 51 54 57 57 58 62 59 63 61 71 82 71 66 67 63 54 46 47 52 52 49 41 35 44 51 69 75 75 74 72 75 73 74 71 69 70 75 80 77 70 73 59 58 67
59 65 53 45 43 45 52 56 57 60 60 75 72 70 74 81 71 60 59 53 52 52 56 57 58 48 37 36 46 56 68 73 73 71 72 73 72 70 71 65 68 73 80 78 77 72 55 56 63
53 58 54 43 37 38 50 56 56 61 66 68 79 83 76 76 68 59 57 50 48 50 53 52 48 46 36 37 49 66 70 73 74 71 74 72 74 71 66 65 70 72 82 79 74 70 65 58 56
48 44 43 37 32 36 51 54 57 57 55 56 59 55 68 72 68 69 57 54 54 53 52 50 50 44 37 40 55 56 59 69 72 70 74 75 70 70 68 66 63 66 76 78 76 72 67 64 66
47 40 34 32 30 34 46 53 54 57 56 59 65 66 68 69 69 70 66 68 67 62 53 52 50 48 40 37 64 71 72 61 72 72 74 74 76 70 70 66 68 64 77 79 79 78 72 69 69
41 38 34 30 29 32 45 52 49 59 60 66 69 71 68 67 67 73 74 74 71 67 54 54 54 53 44 38 38 53 61 66 74 73 74 74 77 76 70 64 71 64 73 83 82 83 78 76 70
41 38 32 33 33 33 37 42 50 58 62 69 74 76 76 72 72 68 68 73 71 65 60 63 57 55 50 43 41 53 58 71 72 73 70 74 73 75 74 68 72 66 69 78 83 84 82 80 76
46 42 46 34 35 34 33 49 60 59 64 73 75 77 78 69 64 71 74 73 72 70 70 72 67 64 57 48 42 52 58 71 75 72 75 80 74 70 76 71 70 67 69 71 78 80 82 82 86
58 51 44 38 34 33 34 42 58 59 62 68 72 75 72 65 76 71 68 72 72 70 72 72 72 72 65 51 53 52 58 55 63 64 67 72 77 70 74 76 70 68 68 65 79 79 83 82 90
51 48 47 48 36 38 40 44 62 61 60 60 62 67 69 68 66 58 67 66 67 70 71 73 74 74 74 69 69 74 82 68 56 59 59 70 67 71 73 75 73 70 70 65 79 82 84 86 88
44 48 50 43 38 42 43 43 46 61 62 61 60 60 61 58 62 59 62 64 66 65 69 71 73 75 76 77 78 82 82 71 63 65 65 64 65 70 81 80 78 76 75 68 82 83 82 86 90
37 42 51 44 39 36 46 42 34 56 61 60 60 62 57 54 64 62 62 56 60 67 59 68 68 72 75 77 77 78 80 83 80 70 66 66 73 80 80 81 77 76 76 75 70 80 84 89 89
35 47 46 43 40 37 37 38 32 32 46 57 58 55 56 55 52 61 61 54 54 59 63 63 62 66 72 75 78 80 83 86 83 72 65 70 77 81 80 82 81 73 73 73 76 72 80 85 91
29 29 36 38 37 42 34 47 34 38 40 45 49 50 50 47 51 50 49 56 50 52 57 64 63 64 71 73 77 78 78 81 78 78 74 72 74 76 81 83 78 73 74 77 78 74 70 83 88
25 21 27 33 41 39 40 42 37 39 36 36 34 32 32 35 41 44 45 42 45 50 53 60 63 64 68 70 75 77 80 83 84 84 82 81 80 82 87 89 88 85 80 82 86 82 81 78 81
14 25 37 46 48 50 46 44 41 38 35 42 35 30 31 27 29 40 42 42 44 50 59 53 67 63 65 68 72 76 77 80 84 81 84 83 86 84 87 90 88 88 86 82 76 85 83 78 78
30 42 54 46 56 54 57 53 46 35 40 42 42 33 30 28 25 31 40 43 47 50 48 49 51 62 60 63 68 71 73 76 78 77 78 80 81 84 85 89 88 88 88 87 83 78 78 80 70
26 40 53 44 51 45 54 47 38 38 39 34 32 28 23 20 24 24 32 38 41 48 49 47 50 53 54 58 63 66 69 69 67 70 72 73 75 77 84 88 91 92 92 87 84 80 77 78 74
19 36 34 52 51 48 53 52 39 37 32 34 31 24 21 21 22 23 24 35 40 42 46 45 42 45 49 53 60 61 63 63 55 60 71 70 70 70 78 87 90 92 92 87 86 85 76 72 63
17 26 36 45 44 43 55 63 53 33 32 36 34 26 22 20 20 21 22 25 37 40 43 46 45 44 44 48 54 56 58 60 55 53 57 62 68 74 77 79 82 85 86 84 82 80 76 69 66
37 39 50 50 52 50 53 51 52 42 39 37 32 24 24 22 20 19 23 26 32 38 40 42 45 46 46 46 49 52 55 60 59 56 57 59 62 68 79 76 80 76 77 79 79 71 67 65 66
21 30 43 40 43 68 54 41 31 43 41 39 32 25 23 25 20 22 21 24 28 33 35 37 40 43 45 46 47 50 54 60 60 63 63 62 66 69 70 79 76 80 78 72 77 78 81 78 76
Wind_Speed
3 5 4 4 4 5 2 2 1 5 2 4 24 3 4 4 1 3 19 24 23 23 22 20 18 16 13 12 11 10 8 7 7 7 9 11 13 14 12 11 10 8 8 7 7 8 9 9 8
2 3 2 3 5 4 2 1 2 3 4 13 13 9 4 2 3 14 32 25 23 23 23 21 18 13 10 11 11 9 8 7 7 8 8 13 14 12 12 12 11 10 9 9 9 10 11 12 9
5 3 5 3 3 3 3 3 4 13 14 6 5 6 3 2 8 32 26 29 24 23 22 20 17 13 10 11 10 9 8 7 7 9 11 13 13 12 12 12 12 11 11 11 12 10 9 10 10
5 4 5 4 3 1 3 5 10 10 2 5 13 6 5 3 28 20 29 27 23 22 21 19 17 14 12 12 10 8 7 6 8 12 14 13 12 12 12 12 12 12 12 13 14 8 8 11 12
6 4 4 2 3 2 2 6 10 5 5 8 4 4 10 16 11 23 28 25 23 22 20 18 16 13 10 9 9 8 7 8 12 15 14 12 11 12 11 11 11 12 14 12 11 14 14 12 13
4 3 5 4 3 3 3 10 5 4 5 10 12 9 4 5 17 28 26 24 22 21 20 18 15 12 11 9 8 7 8 13 16 13 12 11 11 10 11 12 12 12 12 14 7 14 15 16 14
3 4 2 2 2 1 2 6 1 5 9 6 15 5 7 14 23 27 24 22 21 19 18 17 13 12 11 10 9 9 12 15 15 13 11 10 11 11 12 13 13 12 11 11 13 16 15 15 13
3 4 2 3 1 0 5 4 10 8 4 20 8 6 8 23 27 26 22 20 19 18 16 15 14 12 12 11 10 13 16 14 12 10 10 12 12 14 13 12 15 17 12 13 17 19 17 16 17
3 4 2 2 2 2 11 4 8 2 17 3 2 8 24 28 28 27 23 21 20 19 16 16 15 14 13 12 12 16 16 12 11 9 10 11 13 11 10 10 13 16 13 13 16 17 18 17 19
3 3 4 5 3 4 10 9 9 6 12 5 12 14 29 28 29 30 26 25 23 21 19 16 15 15 14 13 14 17 14 12 10 8 9 10 9 8 7 9 12 13 12 14 14 16 19 19 21
1 4 3 3 13 9 11 7 3 16 2 9 21 31 32 30 31 29 27 26 23 21 19 18 16 15 15 14 15 16 13 11 9 7 7 8 8 8 9 12 13 15 8 9 13 16 18 21 22
1 4 5 5 4 6 12 10 5 11 4 13 17 33 34 32 32 28 26 24 23 22 19 17 16 16 15 15 15 13 11 10 9 8 6 8 6 6 6 10 13 15 13 11 12 14 17 21 23
1 4 10 2 4 10 14 6 4 4 3 14 23 31 33 32 30 27 23 22 22 22 21 19 17 16 16 16 15 12 11 11 9 9 6 4 4 4 5 7 9 14 12 10 10 11 14 17 20
4 7 10 9 6 9 8 5 5 7 16 18 22 29 32 33 31 29 27 25 22 20 21 19 18 16 16 16 15 13 9 11 10 9 6 4 3 3 4 6 8 11 12 9 8 9 11 13 15
3 4 3 7 2 3 11 3 3 18 21 20 22 23 29 31 30 31 27 25 20 18 20 20 19 18 16 15 15 14 9 11 10 9 5 5 3 1 3 4 5 8 11 7 5 8 9 10 12
5 4 3 4 2 3 4 6 3 24 26 24 24 25 27 30 32 30 27 24 20 20 19 17 19 18 17 15 14 15 12 11 11 9 7 6 5 2 0 3 3 5 6 7 6 6 9 9 8
6 2 2 4 1 2 3 5 7 25 25 23 26 27 29 29 31 30 28 26 22 20 19 18 18 17 17 17 15 15 14 14 14 12 10 9 7 4 3 1 2 3 5 5 3 7 5 8 8
3 4 4 4 1 2 2 7 5 22 23 24 27 27 28 31 32 29 28 24 21 21 21 20 18 17 16 16 16 16 14 16 17 15 14 11 9 7 5 5 4 2 1 4 3 5 7 7 8
1 2 5 4 2 4 4 5 6 20 21 18 23 26 29 32 27 27 26 22 24 24 24 23 21 20 19 20 19 18 15 14 15 15 15 14 9 7 5 5 6 4 1 1 4 5 6 10 10
3 3 5 7 3 1 5 6 5 13 19 28 26 23 32 32 25 24 27 29 19 28 24 26 24 22 21 21 20 17 13 13 12 14 15 16 12 9 5 5 7 7 6 3 2 3 7 9 11
2 3 3 5 4 2 2 7 6 2 13 19 24 28 28 32 32 28 28 30 32 26 30 27 25 24 22 21 20 20 17 15 15 15 16 15 13 11 9 7 7 7 8 8 4 3 3 9 11
4 2 5 5 1 2 3 3 5 6 7 3 15 23 29 33 31 33 32 32 33 35 28 26 26 25 24 22 22 22 21 18 16 16 14 15 14 13 11 10 9 8 7 9 7 4 3 5 8
6 3 4 4 4 3 5 3 4 5 5 4 5 8 16 27 32 34 33 35 31 23 26 26 27 27 24 23 23 21 21 20 16 15 17 16 15 14 12 11 12 12 11 11 10 9 6 7 8
6 2 6 5 3 3 4 2 5 1 3 6 11 19 17 14 15 26 29 27 31 29 18 24 33 28 27 24 23 22 21 19 19 17 17 18 17 17 15 14 13 12 13 14 15 15 13 11 12
5 5 3 3 4 5 3 2 8 4 3 3 11 17 15 10 8 10 20 23 28 33 33 23 27 32 26 23 23 22 20 18 19 17 16 16 17 18 18 17 16 15 13 15 16 18 17 15 14
2 6 5 5 4 4 2 3 4 4 4 5 5 9 11 9 7 5 10 17 19 30 33 33 27 26 25 24 22 21 19 19 19 17 16 15 15 14 14 16 16 16 15 15 15 18 19 17 16
2 1 2 7 3 2 2 6 9 4 2 3 7 7 13 12 8 3 3 13 17 20 25 30 25 23 23 23 23 23 21 20 18 17 17 16 14 13 14 15 17 17 17 16 17 17 19 18 17
3 3 3 3 4 2 4 5 5 5 5 5 7 9 13 19 14 5 2 8 15 16 18 22 28 25 21 20 23 22 21 21 19 18 19 19 16 15 14 15 17 18 19 18 19 19 19 19 18
2 2 6 4 3 5 2 6 8 9 9 6 8 9 15 22 14 5 3 3 5 10 13 16 22 29 28 26 23 22 20 24 22 21 20 19 19 19 17 15 15 15 17 18 19 17 17 20 19
3 6 6 5 4 2 3 6 3 10 4 6 9 13 21 20 10 8 10 8 4 2 4 7 13 22 28 28 27 26 25 24 22 25 21 20 22 20 20 18 17 16 16 19 21 20 19 20 20
Wind_Direction
65 93 33 353 58 59 68 104 23 162 231 202 173 204 152 48 130 186 148 156 162 154 154 154 152 148 147 150 155 147 130 107 80 58 78 86 88 86 82 73 63 54 45 31 14 3 3 4 6
141 83 345 38 82 70 313 199 221 209 157 140 153 112 60 69 108 144 150 157 161 155 153 155 151 143 139 141 142 134 120 99 75 70 82 96 94 85 74 63 50 44 44 30 19 21 20 16 25
137 16 52 69 100 127 136 185 110 134 121 131 114 82 67 77 147 146 156 156 161 155 153 154 151 141 130 129 129 123 113 94 80 86 98 100 92 79 63 54 44 44 41 29 19 16 20 31 47
88 41 47 67 58 354 152 170 138 141 125 126 118 74 74 119 143 151 154 157 159 155 154 154 153 145 136 128 124 116 109 93 97 103 104 94 82 72 62 52 43 40 36 25 24 38 42 52 47
24 30 64 77 60 87 60 127 151 148 126 119 128 93 108 142 155 156 156 158 160 156 153 153 153 151 141 131 125 119 110 102 105 112 104 92 77 66 56 48 41 37 32 32 40 47 61 68 69
52 58 45 23 45 38 56 157 138 106 99 115 104 103 121 158 167 160 157 159 163 158 155 154 152 153 142 131 121 108 110 114 114 108 98 94 85 65 46 48 40 35 46 42 59 45 78 62 74
82 67 97 269 81 54 182 168 131 133 123 110 134 90 136 154 161 158 157 161 165 164 161 159 154 149 143 138 127 119 121 118 116 114 103 87 72 54 58 43 38 33 47 47 63 70 67 60 71
115 93 79 351 239 158 156 143 141 126 69 138 113 149 164 165 164 161 161 165 169 171 168 167 164 157 149 143 133 130 131 124 120 114 100 84 81 73 61 51 39 37 63 72 78 68 60 65 72
126 65 51 186 174 202 157 121 152 102 139 102 175 153 162 160 165 164 166 170 174 177 176 174 170 161 155 147 143 142 144 135 131 117 94 81 100 79 66 50 43 39 60 81 79 68 57 62 72
70 97 208 197 210 195 162 145 164 125 154 66 89 136 159 163 167 170 173 175 178 180 179 180 175 166 159 156 155 153 154 146 139 123 103 90 95 81 50 53 48 42 62 75 81 75 69 69 76
103 145 271 279 235 193 152 150 146 142 220 198 155 154 165 166 170 175 179 182 180 180 184 182 176 171 165 164 164 162 161 161 152 142 123 98 88 86 65 61 54 39 80 78 80 87 79 75 79
38 203 231 240 139 176 149 156 126 171 274 212 183 167 167 172 176 179 180 184 187 189 188 186 183 178 172 173 171 171 173 173 171 157 132 107 82 82 75 59 54 55 63 85 91 95 85 86 84
31 323 331 267 43 155 147 156 182 217 169 159 171 173 176 181 184 187 190 191 191 195 194 191 190 186 184 182 183 181 180 185 181 172 148 131 93 86 67 49 54 55 60 81 92 98 92 93 89
321 302 323 37 129 127 123 150 140 164 166 163 177 184 188 190 193 194 199 201 200 201 200 198 198 192 191 191 193 193 188 184 189 179 173 166 130 83 48 49 55 58 61 84 96 101 106 99 99
342 29 21 39 357 127 134 162 239 170 173 174 185 194 198 201 203 205 206 207 206 207 205 207 204 199 196 196 198 196 190 189 196 195 199 209 197 164 28 40 54 55 57 61 84 115 118 106 108
17 57 74 309 3 169 94 277 176 176 175 182 193 198 202 208 213 213 218 219 214 212 207 204 204 206 202 196 200 204 206 198 197 202 217 216 216 210 357 57 96 64 50 49 100 118 128 124 110
15 38 1 306 244 154 177 258 190 185 185 187 197 202 207 217 215 218 226 229 227 223 216 208 203 203 202 200 204 209 219 218 219 221 230 231 226 224 215 211 142 78 38 38 121 134 140 144 131
26 8 312 267 260 62 223 272 173 194 197 200 203 206 212 220 218 220 224 227 235 232 229 222 216 208 203 200 203 205 220 223 222 224 227 233 241 226 223 227 215 177 27 4 142 151 141 150 152
256 220 260 268 220 176 225 271 211 203 209 215 216 214 223 228 222 226 225 226 242 232 230 226 225 216 212 208 208 213 218 222 228 230 226 227 232 211 212 228 227 209 230 337 141 171 174 165 173
266 271 283 289 183 330 17 308 292 198 221 214 217 218 228 236 228 225 221 226 228 232 232 227 227 226 222 221 222 224 231 235 230 229 229 217 218 215 213 226 242 231 242 239 193 213 206 192 178
269 183 229 254 3 71 32 333 333 343 253 221 227 235 241 241 235 226 222 230 230 234 230 227 228 229 226 227 226 229 228 231 222 220 221 221 221 217 235 246 246 236 235 235 236 214 225 219 198
347 209 255 270 106 245 41 269 301 324 346 197 229 236 245 251 247 239 234 226 230 236 236 237 235 233 228 227 227 230 235 236 233 229 231 224 224 233 240 238 240 244 232 224 225 226 205 216 225
240 340 281 206 126 94 359 71 263 345 345 11 335 294 283 265 254 245 235 235 231 235 246 241 237 237 231 232 231 233 237 239 243 242 235 231 233 234 237 237 245 252 243 239 234 233 227 233 240
261 60 41 46 82 29 310 111 293 228 252 305 315 326 324 284 273 258 255 243 233 222 215 240 241 233 233 232 234 236 240 239 236 235 235 235 237 239 241 240 244 253 244 236 239 244 248 247 251
80 62 352 9 16 215 307 7 239 245 231 263 300 333 18 357 299 270 252 240 229 222 217 226 228 229 229 229 233 235 240 240 237 236 239 239 239 240 241 243 244 251 257 246 245 245 247 250 253
159 153 157 189 188 244 310 242 257 216 286 278 311 327 5 25 26 351 278 257 244 231 220 222 228 228 226 228 230 231 236 237 238 233 234 238 239 241 242 243 246 248 251 246 242 240 243 245 246
182 159 175 102 12 68 272 295 308 275 148 293 309 346 4 7 354 323 261 253 246 243 233 228 229 233 232 232 233 232 232 233 235 237 235 234 236 234 235 237 241 241 242 242 238 241 239 243 242
143 145 74 18 134 237 306 301 240 279 233 275 313 333 359 2 358 358 273 257 247 247 250 238 234 233 237 238 237 236 238 238 238 237 236 238 239 238 239 239 240 240 239 238 237 241 235 237 243
62 66 52 110 107 159 185 265 216 224 210 226 280 319 350 350 353 29 67 121 219 247 249 249 240 234 235 238 239 238 246 242 240 242 242 243 244 245 247 247 242 241 239 234 233 234 237 241 243
175 168 148 127 214 86 145 272 232 225 185 264 302 347 353 353 4 57 56 69 97 205 238 243 247 244 243 247 248 244 248 250 242 244 244 244 247 246 248 248 248 244 240 231 231 237 242 245 248